[[{"header":{"parameterUnit":"m.s-1","parameterCategory":2,"la1":30.2991,"la2":30.254,"lo1":-89.0895,"lo2":-89.0444,"dy":0.0017,"dx":0.0017,"nx":28,"ny":28,"refTime":"2024-07-12T03:00:00:Z","depth":"0","parameterNumber":2,"parameterNumberName":"U-component_of_CURRENTS"},"data":[0,0,0,0,0,0,0,0,0,0,0,0,0,0,0,0,0,0,0,0,0,0,0,0,0,0,0,0,0,0,0,0,0,0,0,0,0,0,0,0,0,0,0,0,0,0,0,0,0,0,0,0,0,0,0,0,0,0,0.2202,0.2202,0,0.2217,0.2217,0.2217,0.2176,0.2175,0.2173,0.2172,0.221,0.2212,0.2215,0,0,0,0,0,0,0,0,0,0,0,0,0,0.2176,0.2176,0.2202,0.2202,0.2202,0.2217,0.2217,0.2217,0.2176,0.2175,0.2173,0.2171,0.2209,0.2212,0.2215,0,0,0,0,0,0,0,0,0,0,0,0,0,0.219,0.2176,0.2202,0.2182,0.218,0.2217,0.2217,0.2218,0.2177,0.2175,0.2172,0.217,0.2209,0.2212,0.2215,0.2279,0,0,0.2226,0.2228,0,0,0,0,0,0,0,0,0.2189,0.2191,0.2185,0.2183,0.2182,0.2191,0.2222,0.2239,0.2177,0.218,0.2172,0.2169,0.2207,0.221,0.2219,0.2281,0.2283,0.2226,0.2229,0.223,0.2231,0,0,0,0,0,0,0,0.2188,0.219,0.2209,0.2185,0.2183,0.2186,0.2185,0.2225,0.2206,0.2179,0.2176,0.2176,0.2206,0.2216,0.222,0.2283,0.2226,0.2229,0.2232,0.2233,0.2453,0.2457,0,0,0,0,0,0,0.2184,0.2189,0.2209,0.2209,0.2179,0.2187,0.2187,0.2191,0.2205,0.2205,0.2178,0.2174,0.2211,0.2216,0.2221,0.2306,0.223,0.2233,0.2235,0.2449,0.2454,0.2458,0,0,0,0,0,0,0.2183,0.2186,0.2208,0.2198,0.2201,0.219,0.2195,0.2193,0.22,0.2204,0.2203,0.2186,0.221,0.2216,0.2277,0.2307,0.2235,0.2238,0.2445,0.2451,0.2456,0.2471,0,0,0,0,0,0,0.2183,0.2186,0.2204,0.2198,0.2201,0.2234,0.2197,0.2195,0.2202,0.2198,0.2212,0.2213,0.2209,0.2272,0.228,0.231,0.2241,0.244,0.2448,0.2454,0.2465,0.2476,0.2485,0,0,0,0,0,0.2182,0.2226,0.2205,0.2208,0.2222,0.2235,0.2238,0.2223,0.2205,0.222,0.224,0.2212,0.2322,0.2278,0.2287,0.2318,0.2437,0.2445,0.2454,0.2461,0.2474,0.2485,0,0,0,0,0,0,0.2262,0.2226,0.2203,0.2243,0.2234,0.2227,0.2255,0.2234,0.2261,0.2259,0.2256,0.2262,0.2331,0.2341,0.2291,0.2412,0.2378,0.2388,0.2381,0.2393,0.2403,0.2403,0.2244,0,0,0,0,0,0.2278,0.2279,0.2255,0.229,0.2287,0.2269,0.2278,0.2256,0.2271,0.2278,0.2293,0.2328,0.2379,0.2394,0.2442,0.2501,0.2517,0.2536,0.2545,0.2553,0.2566,0.2629,0.2643,0.2486,0.2486,0.2485,0,0,0.2317,0.2302,0.2304,0.2302,0.2299,0.2303,0.2271,0.2283,0.2292,0.2284,0.2332,0.2368,0.241,0.2477,0.2508,0.2479,0.2609,0.2564,0.2569,0.2579,0.2639,0.2653,0.2666,0.2491,0.249,0.2489,0,0,0.2385,0.2383,0.2391,0.2385,0.2368,0.2351,0.2353,0.2346,0.2349,0.239,0.2404,0.2465,0.2519,0.2563,0.2588,0.2693,0.2669,0.2705,0.2736,0.2795,0.2807,0.2818,0.2849,0.2862,0.2696,0.2696,0.2696,0,0.2428,0.2432,0.2405,0.2414,0.2411,0.2371,0.2379,0.2389,0.2405,0.2423,0.2408,0.2528,0.2565,0.2651,0.2692,0.2711,0.2727,0.267,0.2803,0.2814,0.2825,0.2853,0.2868,0.2697,0.2697,0.2697,0.2697,0,0.2478,0.2488,0.2507,0.2479,0.2482,0.2489,0.2472,0.249,0.2481,0.2482,0.2562,0.2619,0.2677,0.2714,0.2732,0.2838,0.2818,0.281,0.2754,0.284,0.2867,0.2881,0.27,0.2699,0.2699,0.2698,0,0,0.2531,0.253,0.2532,0.2517,0.2506,0.2501,0.2537,0.2542,0.2553,0.2589,0.2619,0.274,0.2748,0.2785,0.282,0.2885,0.2983,0.2879,0.2882,0.2878,0.3093,0.3056,0.3068,0.2982,0.2985,0.2987,0.3074,0,0.2561,0.2577,0.2572,0.258,0.2575,0.2561,0.2587,0.2593,0.2604,0.2632,0.269,0.2743,0.2776,0.2801,0.2876,0.2972,0.3025,0.2959,0.3039,0.3042,0.2972,0.3086,0.2986,0.3054,0.3089,0.3091,0.3093,0,0.2579,0.2584,0.2596,0.2589,0.2587,0.2589,0.2592,0.2612,0.2652,0.2665,0.272,0.2747,0.287,0.2862,0.3048,0.2997,0.3052,0.3111,0.3115,0.3087,0.3034,0.2982,0.3079,0.2927,0.3115,0.3113,0.3112,0,0.2566,0.2587,0.2586,0.2586,0.2586,0.2593,0.2592,0.2622,0.2638,0.2684,0.27,0.2808,0.286,0.2973,0.3091,0.3076,0.3262,0.3246,0.3256,0.3252,0.319,0.3176,0.3125,0.3357,0.3357,0.3356,0.3356,0,0.2566,0.2557,0.2576,0.257,0.2563,0.2575,0.2576,0.2596,0.2632,0.2647,0.2712,0.2752,0.2894,0.2995,0.3098,0.323,0.3265,0.3294,0.3291,0.3194,0.318,0.3062,0.3015,0.336,0.3359,0.3358,0.3358,0,0.2516,0.2539,0.2528,0.2545,0.2548,0.2533,0.2546,0.2544,0.2601,0.2625,0.2641,0.2741,0.2882,0.3001,0.318,0.3234,0.3273,0.3378,0.3239,0.322,0.3096,0.3056,0.2987,0.2942,0.3431,0.3431,0.3431,0,0.2474,0.2474,0.2492,0.2479,0.2476,0.247,0.2458,0.251,0.2516,0.2618,0.2622,0.2753,0.2835,0.3073,0.3192,0.3345,0.3241,0.331,0.3285,0.3101,0.3054,0.2938,0.2897,0.3205,0.3203,0.3202,0.32,0,0.2392,0.2409,0.2398,0.2391,0.2376,0.2368,0.237,0.2376,0.2437,0.2488,0.2566,0.2655,0.2864,0.2967,0.3141,0.3243,0.3143,0.3283,0.314,0.2929,0.2755,0.2704,0.3109,0.3186,0.3188,0.3189,0.3189,0.319,0.2309,0.2287,0.2292,0.2267,0.2262,0.2249,0.222,0.2252,0.2277,0.2326,0.246,0.2552,0.2713,0.2966,0.304,0.3029,0.3062,0.2966,0.295,0.286,0.2762,0.3127,0.3167,0.3168,0.3169,0.317,0.3171,0,0.2197,0.2187,0.2165,0.2139,0.2104,0.2145,0.2136,0.2107,0.2112,0.22,0.228,0.2396,0.2504,0.2637,0.2722,0.2676,0.263,0.2603,0.2402,0.2401,0.2763,0.2694,0.2574,0.2574,0.2574,0.2574,0.2574,0.2574,0.2128,0.2076,0.2071,0.1988,0.1974,0.1918,0.1901,0.1895,0.1935,0.1957,0.1998,0.2083,0.2231,0.2296,0.2276,0.2278,0.2145,0.2069,0.208,0.2287,0.2317,0.2346,0.2265,0.2058,0.2057,0.163,0.1627,0.1624]},{"header":{"parameterUnit":"m.s-1","parameterCategory":2,"la1":30.2991,"la2":30.254,"lo1":-89.0895,"lo2":-89.0444,"dy":0.0017,"dx":0.0017,"nx":28,"ny":28,"refTime":"2024-07-12T03:00:00:Z","depth":"0","parameterNumber":3,"parameterNumberName":"V-component_of_CURRENTS"},"data":[0,0,0,0,0,0,0,0,0,0,0,0,0,0,0,0,0,0,0,0,0,0,0,0,0,0,0,0,0,0,0,0,0,0,0,0,0,0,0,0,0,0,0,0,0,0,0,0,0,0,0,0,0,0,0,0,0,0,0.1227,0.1227,0,0.1203,0.1202,0.1202,0.1158,0.1157,0.1157,0.1156,0.1074,0.1073,0.1071,0,0,0,0,0,0,0,0,0,0,0,0,0,0.1186,0.1187,0.1227,0.1227,0.1227,0.1203,0.1202,0.1202,0.1158,0.1157,0.1157,0.1156,0.1075,0.1073,0.1071,0,0,0,0,0,0,0,0,0,0,0,0,0,0.1184,0.1187,0.1227,0.1204,0.1202,0.1203,0.1202,0.1201,0.1158,0.1157,0.1156,0.1156,0.1075,0.1073,0.1071,0.1072,0,0,0.1063,0.1062,0,0,0,0,0,0,0,0,0.1184,0.1185,0.1208,0.1206,0.1204,0.1185,0.1158,0.1156,0.1158,0.1172,0.1156,0.1155,0.1109,0.1103,0.1097,0.1068,0.1065,0.1063,0.1061,0.106,0.1059,0,0,0,0,0,0,0,0.1184,0.1186,0.1214,0.1208,0.1205,0.1179,0.1178,0.1157,0.1142,0.117,0.1168,0.117,0.1106,0.11,0.1095,0.1063,0.1063,0.1061,0.1059,0.1058,0.1015,0.1016,0,0,0,0,0,0,0.1197,0.1186,0.1215,0.1214,0.1195,0.1181,0.1179,0.1189,0.1143,0.1137,0.1171,0.1169,0.1104,0.1098,0.1092,0.1098,0.106,0.1058,0.1056,0.1015,0.1015,0.1016,0,0,0,0,0,0,0.1197,0.1201,0.1216,0.1201,0.1202,0.1183,0.1194,0.119,0.1181,0.1145,0.1136,0.1168,0.1103,0.1095,0.108,0.1094,0.1057,0.1054,0.1014,0.1015,0.1016,0.1105,0,0,0,0,0,0,0.1196,0.1201,0.121,0.1203,0.1203,0.1214,0.1195,0.119,0.1186,0.1182,0.114,0.1131,0.1102,0.1084,0.1077,0.109,0.1052,0.1014,0.1015,0.1015,0.1102,0.1109,0.1114,0,0,0,0,0,0.1195,0.1206,0.1211,0.1214,0.1218,0.1214,0.1212,0.1193,0.1187,0.1182,0.1162,0.1132,0.1083,0.1082,0.1075,0.1087,0.1014,0.1015,0.1015,0.1099,0.1107,0.1114,0,0,0,0,0,0,0.118,0.1203,0.1207,0.1222,0.1221,0.1208,0.1205,0.1199,0.1181,0.1174,0.1142,0.1133,0.1125,0.1091,0.1092,0.1074,0.1041,0.104,0.1107,0.1115,0.1121,0.1127,0.105,0,0,0,0,0,0.1189,0.1208,0.1216,0.1226,0.123,0.1222,0.1219,0.1207,0.1194,0.1185,0.1169,0.1142,0.1123,0.1108,0.1085,0.1078,0.1037,0.1077,0.1083,0.1089,0.1087,0.1043,0.1045,0.1018,0.1018,0.1018,0,0,0.1184,0.12,0.1209,0.1225,0.1223,0.123,0.1216,0.1212,0.1219,0.1179,0.1188,0.1168,0.1127,0.1122,0.1114,0.1094,0.1077,0.109,0.1096,0.109,0.1044,0.1047,0.1049,0.1019,0.1019,0.1019,0,0,0.1183,0.1203,0.1218,0.1227,0.1234,0.123,0.1234,0.1234,0.1237,0.1244,0.1219,0.1211,0.1185,0.1164,0.1147,0.1172,0.1117,0.1162,0.1196,0.1154,0.1156,0.1157,0.1119,0.1116,0.1161,0.1161,0.1161,0,0.1178,0.1205,0.1217,0.1234,0.1247,0.1236,0.125,0.125,0.1248,0.1259,0.1253,0.1233,0.1205,0.1194,0.1206,0.1188,0.1152,0.1175,0.1163,0.1164,0.1163,0.1123,0.1119,0.1165,0.1165,0.1164,0.1164,0,0.1189,0.1214,0.1222,0.125,0.126,0.1268,0.128,0.129,0.13,0.1304,0.1313,0.1288,0.1268,0.1267,0.1246,0.1235,0.1207,0.1183,0.1148,0.1172,0.1128,0.1122,0.1171,0.117,0.1169,0.1167,0,0,0.1163,0.1223,0.1225,0.1249,0.1275,0.128,0.1306,0.1326,0.1345,0.1348,0.1365,0.1356,0.1343,0.1321,0.1296,0.1271,0.125,0.1232,0.1228,0.1202,0.1156,0.1113,0.1101,0.1223,0.1222,0.1221,0.1131,0,0.1167,0.1211,0.1243,0.1275,0.1295,0.1318,0.135,0.1365,0.138,0.1391,0.1372,0.1372,0.136,0.1353,0.1327,0.1278,0.1236,0.1277,0.1129,0.1125,0.109,0.1093,0.1109,0.1027,0.1124,0.1123,0.1122,0,0.1157,0.1196,0.1237,0.1307,0.132,0.1337,0.1384,0.1411,0.1425,0.1443,0.1435,0.1413,0.1392,0.1362,0.1287,0.1314,0.1235,0.119,0.1185,0.1106,0.1069,0.1015,0.1011,0.0908,0.1112,0.1113,0.1113,0,0.1115,0.1186,0.1224,0.1245,0.1316,0.1343,0.1378,0.1416,0.1452,0.1456,0.1475,0.1441,0.142,0.1341,0.1263,0.1267,0.116,0.1146,0.1025,0.1021,0.0984,0.0978,0.0867,0.1051,0.1051,0.1052,0.1052,0,0.1102,0.1127,0.1207,0.1225,0.1275,0.133,0.1375,0.1415,0.1459,0.1495,0.1487,0.1502,0.1411,0.1346,0.1261,0.1135,0.1151,0.1026,0.0992,0.1016,0.1014,0.0881,0.0834,0.1048,0.1049,0.105,0.105,0,0.1042,0.1094,0.1138,0.1226,0.125,0.128,0.1371,0.1411,0.1469,0.1506,0.1509,0.1527,0.1465,0.136,0.1225,0.1132,0.0953,0.0947,0.0986,0.0957,0.0756,0.0715,0.0558,0.0525,0.0809,0.0807,0.0806,0,0.1021,0.1034,0.1121,0.1152,0.1191,0.1247,0.1296,0.1385,0.1436,0.1533,0.1551,0.1515,0.1513,0.1325,0.1139,0.0959,0.0875,0.083,0.0833,0.0739,0.0667,0.0648,0.0631,0.0824,0.0823,0.0822,0.0822,0,0.0978,0.1003,0.1047,0.1112,0.1162,0.1233,0.1312,0.1352,0.1463,0.1527,0.1609,0.1624,0.1468,0.1319,0.1066,0.0942,0.0777,0.0802,0.0695,0.0657,0.0638,0.0592,0.0892,0.0813,0.0814,0.0815,0.0815,0.0816,0.094,0.0959,0.1017,0.1077,0.1145,0.1228,0.1277,0.137,0.1464,0.1587,0.1624,0.1683,0.1488,0.1171,0.0992,0.0656,0.0671,0.0568,0.0522,0.0508,0.0483,0.0761,0.0648,0.0647,0.0647,0.0647,0.0647,0,0.09,0.0933,0.0986,0.1068,0.114,0.1193,0.1302,0.1366,0.1468,0.159,0.1679,0.1627,0.1371,0.1098,0.0653,0.0428,0.0389,0.0311,0.0298,0.0293,0.0527,0.0535,0.0405,0.0405,0.0405,0.0405,0.0405,0.0405,0.0874,0.0906,0.0943,0.1042,0.1113,0.1206,0.1268,0.1374,0.1477,0.1604,0.1656,0.1705,0.1488,0.0759,0.028,0.0191,0.0069,0.0031,-0.0039,0.0129,0.0151,0.0172,0.0167,-0.0038,-0.0038,-0.0219,-0.0221,-0.0223]}],[{"header":{"parameterUnit":"m.s-1","parameterCategory":2,"la1":30.2991,"la2":30.254,"lo1":-89.0895,"lo2":-89.0444,"dy":0.0017,"dx":0.0017,"nx":28,"ny":28,"refTime":"2024-07-12T03:00:00:Z","depth":"2","parameterNumber":2,"parameterNumberName":"U-component_of_CURRENTS"},"data":[0,0,0,0,0,0,0,0,0,0,0,0,0,0,0,0,0,0,0,0,0,0,0,0,0,0,0,0,0,0,0,0,0,0,0,0,0,0,0,0,0,0,0,0,0,0,0,0,0,0,0,0,0,0,0,0,0,0,0.0952,0.0952,0,0.1023,0.1024,0.1025,0.1162,0.1164,0.1166,0.1168,0.126,0.1261,0.1261,0,0,0,0,0,0,0,0,0,0,0,0,0,0.1025,0.1022,0.0952,0.0952,0.0953,0.1023,0.1024,0.1026,0.1161,0.1164,0.1167,0.1169,0.126,0.1261,0.1261,0,0,0,0,0,0,0,0,0,0,0,0,0,0.1038,0.1022,0.0952,0.1025,0.1032,0.1022,0.1024,0.1026,0.1161,0.1164,0.1167,0.1171,0.126,0.1261,0.1261,0.1198,0,0,0.1263,0.1263,0,0,0,0,0,0,0,0,0.1037,0.1036,0.1014,0.102,0.1028,0.1083,0.1084,0.1083,0.116,0.1117,0.1168,0.1172,0.1197,0.1203,0.1216,0.1203,0.1207,0.1263,0.1263,0.1264,0.1264,0,0,0,0,0,0,0,0.1036,0.1034,0.0985,0.1014,0.1022,0.1086,0.1091,0.1085,0.1142,0.1121,0.113,0.1129,0.1202,0.1215,0.1219,0.1208,0.1263,0.1264,0.1264,0.1264,0.1229,0.1228,0,0,0,0,0,0,0.1008,0.1032,0.0983,0.0987,0.1035,0.1081,0.1087,0.1066,0.1142,0.1155,0.1126,0.1135,0.1212,0.1218,0.1223,0.1271,0.1264,0.1264,0.1265,0.1231,0.1229,0.1228,0,0,0,0,0,0,0.1009,0.1002,0.098,0.1009,0.101,0.1075,0.105,0.1065,0.1154,0.1144,0.116,0.1208,0.1215,0.1222,0.1304,0.1271,0.1265,0.1265,0.1232,0.123,0.1228,0.1291,0,0,0,0,0,0,0.101,0.1001,0.101,0.1006,0.1007,0.102,0.1047,0.1064,0.1141,0.1156,0.1217,0.1225,0.1218,0.1304,0.1305,0.1272,0.1266,0.1234,0.1231,0.1229,0.1291,0.1292,0.1293,0,0,0,0,0,0.1012,0.098,0.1009,0.1005,0.1004,0.102,0.1029,0.109,0.1142,0.1184,0.1249,0.1228,0.1285,0.1307,0.1307,0.1273,0.1235,0.1232,0.1229,0.1291,0.1292,0.1293,0,0,0,0,0,0,0.1016,0.0991,0.1022,0.0988,0.1032,0.1043,0.1092,0.1126,0.1208,0.1256,0.126,0.1272,0.1323,0.1288,0.1311,0.1247,0.1234,0.1232,0.128,0.1281,0.1282,0.1281,0.1266,0,0,0,0,0,0.1016,0.0996,0.1005,0.0994,0.103,0.1081,0.111,0.1152,0.1202,0.1247,0.1259,0.1273,0.129,0.1293,0.1301,0.1285,0.1242,0.1243,0.1244,0.1245,0.124,0.1168,0.1163,0.1218,0.1218,0.1218,0,0,0.1003,0.1,0.0985,0.0998,0.1054,0.1056,0.1113,0.118,0.1175,0.1236,0.1262,0.131,0.1299,0.1299,0.1306,0.1277,0.1207,0.1241,0.1244,0.1237,0.1164,0.1159,0.1155,0.1216,0.1217,0.1217,0,0,0.0954,0.0998,0.0968,0.1005,0.108,0.1101,0.1134,0.1174,0.1218,0.1255,0.1289,0.1354,0.1328,0.1324,0.1318,0.1322,0.1243,0.1275,0.1254,0.1185,0.118,0.1176,0.1125,0.1115,0.1241,0.1241,0.1241,0,0.0943,0.0908,0.0973,0.0971,0.0991,0.112,0.1107,0.115,0.1198,0.1252,0.1274,0.1315,0.1336,0.1335,0.133,0.1328,0.1265,0.1265,0.1189,0.1183,0.1177,0.1126,0.1115,0.1244,0.1244,0.1243,0.1243,0,0.0873,0.0868,0.088,0.0897,0.0932,0.0968,0.1021,0.1076,0.1151,0.1211,0.1287,0.1316,0.1333,0.1325,0.1337,0.1284,0.1249,0.1233,0.1197,0.1176,0.1123,0.111,0.1248,0.1247,0.1246,0.1245,0,0,0.0799,0.0806,0.0824,0.0851,0.0907,0.0949,0.0952,0.1031,0.1092,0.1164,0.1234,0.1259,0.1333,0.1323,0.132,0.126,0.1197,0.1211,0.1206,0.1179,0.103,0.1061,0.1049,0.1145,0.1143,0.1141,0.1014,0,0.0745,0.0701,0.0707,0.0725,0.0742,0.0833,0.0824,0.0933,0.1026,0.1135,0.1252,0.134,0.1303,0.1342,0.1269,0.1237,0.116,0.1233,0.1036,0.1031,0.1076,0.1035,0.099,0.0876,0.1001,0.0999,0.0998,0,0.0711,0.0686,0.0642,0.0684,0.0706,0.0746,0.0851,0.0851,0.1032,0.1106,0.121,0.1325,0.1332,0.1311,0.1149,0.118,0.1096,0.1053,0.1046,0.1043,0.1037,0.091,0.0847,0.0975,0.0977,0.0979,0.098,0,0.0703,0.0685,0.0657,0.0669,0.069,0.0752,0.0813,0.0927,0.0951,0.1154,0.1212,0.1265,0.1339,0.1183,0.1115,0.1104,0.0956,0.093,0.0875,0.0877,0.0786,0.0784,0.0804,0.0804,0.0805,0.0805,0.0805,0,0.0653,0.0658,0.0705,0.0706,0.076,0.0804,0.089,0.0938,0.1035,0.1095,0.1224,0.1223,0.1306,0.1265,0.1112,0.0954,0.0923,0.0866,0.0839,0.0809,0.0811,0.0854,0.0862,0.08,0.0801,0.0802,0.0803,0,0.0624,0.062,0.063,0.0697,0.0758,0.083,0.0945,0.0967,0.104,0.1098,0.1169,0.126,0.1225,0.1244,0.1123,0.0994,0.0828,0.0787,0.0783,0.0759,0.0789,0.0801,0.0673,0.0673,0.0673,0.0673,0.0673,0,0.0581,0.0571,0.0659,0.0693,0.0752,0.0875,0.0913,0.0997,0.0996,0.1033,0.1035,0.1165,0.1172,0.1053,0.0975,0.0811,0.085,0.0675,0.0661,0.0785,0.0771,0.0784,0.0795,0.0554,0.0553,0.0553,0.0552,0,0.0503,0.0554,0.0588,0.0642,0.0734,0.0771,0.0876,0.0877,0.0915,0.0941,0.0935,0.0978,0.0997,0.0939,0.0888,0.0725,0.0704,0.0654,0.074,0.0628,0.0671,0.066,0.0675,0.0544,0.0545,0.0546,0.0546,0.0546,0.052,0.0546,0.0596,0.0646,0.069,0.0689,0.0739,0.0775,0.0789,0.0804,0.0816,0.0844,0.0814,0.0751,0.065,0.0655,0.0635,0.0562,0.0564,0.0567,0.0609,0.0654,0.053,0.0531,0.0532,0.0532,0.0532,0,0.0533,0.0561,0.0582,0.0646,0.0612,0.0677,0.0688,0.069,0.0715,0.073,0.0758,0.0627,0.0591,0.0638,0.061,0.0507,0.0475,0.0518,0.0501,0.0506,0.0511,0.0552,0.0457,0.0458,0.0458,0.0459,0,0,0.0578,0.0559,0.0552,0.0538,0.0603,0.061,0.0633,0.0613,0.0626,0.0599,0.0647,0.0584,0.06,0.0533,0.0465,0.0529,0.0528,0.0501,0.055,0.0539,0.0546,0.0509,0.0574,0,0,0,0,0]},{"header":{"parameterUnit":"m.s-1","parameterCategory":2,"la1":30.2991,"la2":30.254,"lo1":-89.0895,"lo2":-89.0444,"dy":0.0017,"dx":0.0017,"nx":28,"ny":28,"refTime":"2024-07-12T03:00:00:Z","depth":"2","parameterNumber":3,"parameterNumberName":"V-component_of_CURRENTS"},"data":[0,0,0,0,0,0,0,0,0,0,0,0,0,0,0,0,0,0,0,0,0,0,0,0,0,0,0,0,0,0,0,0,0,0,0,0,0,0,0,0,0,0,0,0,0,0,0,0,0,0,0,0,0,0,0,0,0,0,-0.0083,-0.0083,0,-0.0109,-0.0109,-0.011,-0.0031,-0.0028,-0.0025,-0.0022,0.0048,0.0047,0.0046,0,0,0,0,0,0,0,0,0,0,0,0,0,-0.0019,-0.0021,-0.0083,-0.0083,-0.0083,-0.0109,-0.011,-0.011,-0.0031,-0.0028,-0.0024,-0.0021,0.0048,0.0047,0.0046,0,0,0,0,0,0,0,0,0,0,0,0,0,-0.005,-0.0021,-0.0083,-0.0043,-0.004,-0.0109,-0.011,-0.011,-0.0032,-0.0028,-0.0023,-0.0019,0.0048,0.0047,0.0046,-0.0045,0,0,0.0043,0.0042,0,0,0,0,0,0,0,0,-0.0048,-0.0053,-0.0049,-0.0046,-0.0042,-0.0058,-0.0061,-0.0082,-0.0033,-0.0039,-0.0022,-0.0017,0.0021,0.0022,0.0,-0.0042,-0.0039,0.0042,0.0042,0.0041,0.0041,0,0,0,0,0,0,0,-0.0046,-0.0052,-0.0097,-0.0049,-0.0045,-0.0043,-0.0042,-0.0066,-0.0034,-0.0038,-0.0032,-0.0029,0.0023,0.0001,0.0003,-0.0038,0.0042,0.0041,0.0041,0.004,-0.0092,-0.0095,0,0,0,0,0,0,-0.0037,-0.005,-0.0096,-0.0098,-0.003,-0.0047,-0.0047,-0.0061,-0.0036,-0.0027,-0.0033,-0.0025,0.0001,0.0004,0.0006,0.0039,0.0041,0.004,0.004,-0.0089,-0.0093,-0.0096,0,0,0,0,0,0,-0.0036,-0.0042,-0.0095,-0.007,-0.0075,-0.0051,-0.0069,-0.0064,-0.0029,-0.0032,-0.0021,0.0004,0.0005,0.0008,0.0061,0.0038,0.004,0.0039,-0.0086,-0.009,-0.0094,0.0017,0,0,0,0,0,0,-0.0035,-0.0042,-0.0048,-0.007,-0.0076,-0.0092,-0.0072,-0.0067,-0.0036,-0.0025,0.0001,0.0009,0.0008,0.0063,0.006,0.0037,0.0038,-0.0082,-0.0088,-0.0093,0.0017,0.0017,0.0017,0,0,0,0,0,-0.0033,-0.0064,-0.0049,-0.0053,-0.0087,-0.0091,-0.0093,-0.0065,-0.0037,-0.002,0.0022,0.0011,0.0023,0.0064,0.006,0.0035,-0.008,-0.0086,-0.0092,0.0017,0.0017,0.0017,0,0,0,0,0,0,-0.0054,-0.0059,-0.0042,-0.0076,-0.0058,-0.0074,-0.0054,-0.0048,-0.0013,0.003,0.0023,0.0033,0.0061,0.0015,0.0058,-0.0036,-0.0053,-0.006,0.0031,0.0031,0.0031,0.0013,0.0037,0,0,0,0,0,-0.0061,-0.0068,-0.0067,-0.0085,-0.006,-0.005,-0.0046,-0.0019,0.0004,0.0025,0.0018,0.0009,0.0009,0.001,-0.0004,-0.0035,-0.0079,-0.008,-0.008,-0.0078,-0.0106,-0.0179,-0.0186,-0.0117,-0.0117,-0.0116,0,0,-0.0076,-0.0076,-0.0083,-0.0086,-0.0057,-0.0052,-0.0034,0.0006,-0.0005,0.0024,0.0019,0.0037,0.0007,-0.0005,-0.0009,-0.003,-0.0115,-0.0086,-0.0083,-0.0113,-0.0186,-0.0192,-0.0198,-0.0121,-0.012,-0.0119,0,0,-0.0103,-0.009,-0.0091,-0.0073,-0.0021,-0.0018,0.0005,0.0011,0.002,0.0017,0.0039,0.0069,0.0004,0.0006,-0.0008,-0.0032,-0.0091,-0.0084,-0.0105,-0.0174,-0.0179,-0.0184,-0.0194,-0.0201,-0.0106,-0.0106,-0.0106,0,-0.0115,-0.0122,-0.0091,-0.0078,-0.0061,0.0002,0.0013,0.0009,0.0015,0.0037,0.0032,-0.0002,0.0004,0.0006,-0.0013,-0.0023,-0.0075,-0.0075,-0.0167,-0.0173,-0.018,-0.019,-0.0199,-0.0101,-0.0102,-0.0102,-0.0103,0,-0.0128,-0.0129,-0.0112,-0.008,-0.0066,-0.0028,-0.0013,-0.0001,0.0012,0.002,0.0036,0.0028,0.0004,-0.0011,-0.0017,-0.0077,-0.0096,-0.0125,-0.0143,-0.0179,-0.0189,-0.02,-0.0095,-0.0096,-0.0098,-0.0099,0,0,-0.0166,-0.0131,-0.0123,-0.0092,-0.0049,-0.0026,-0.0031,0.0005,0.0027,0.0017,0.0037,0.0009,0.0023,-0.0001,-0.0013,-0.0087,-0.0139,-0.0152,-0.0157,-0.012,-0.0277,-0.0197,-0.0202,-0.0199,-0.0202,-0.0204,-0.0241,0,-0.0168,-0.015,-0.0146,-0.0115,-0.0082,-0.0043,-0.0057,-0.0012,-0.0,0.0031,0.0064,0.0089,0.0016,0.0031,-0.0061,-0.0123,-0.0178,-0.0126,-0.0289,-0.0293,-0.0183,-0.0216,-0.0205,-0.0233,-0.0252,-0.0254,-0.0255,0,-0.017,-0.0153,-0.0135,-0.0096,-0.0073,-0.0054,-0.0005,-0.0021,0.0047,0.0061,0.008,0.0116,0.007,0.0015,-0.0171,-0.0152,-0.0224,-0.0278,-0.0281,-0.0266,-0.0237,-0.022,-0.0253,-0.0275,-0.0273,-0.0272,-0.027,0,-0.017,-0.014,-0.0117,-0.0102,-0.0065,-0.0033,-0.0004,0.0031,0.0039,0.0112,0.0133,0.0103,0.0116,-0.0055,-0.0181,-0.0197,-0.0367,-0.0383,-0.036,-0.0352,-0.0406,-0.0399,-0.0496,-0.0496,-0.0496,-0.0496,-0.0496,0,-0.0171,-0.0146,-0.009,-0.0073,-0.001,0.0003,0.0054,0.0066,0.0107,0.0148,0.0152,0.0146,0.0081,0.0001,-0.0166,-0.0309,-0.0367,-0.0372,-0.0374,-0.0362,-0.0351,-0.0458,-0.0453,-0.0497,-0.0497,-0.0497,-0.0496,0,-0.0173,-0.0152,-0.0113,-0.0048,-0.001,0.0042,0.0115,0.0134,0.0135,0.0174,0.0214,0.0212,0.0093,0.0011,-0.0159,-0.0237,-0.0393,-0.0405,-0.0341,-0.0334,-0.0326,-0.0316,-0.0397,-0.0395,-0.0393,-0.0392,-0.039,0,-0.0166,-0.0152,-0.0079,-0.0033,0.0015,0.0097,0.0142,0.0172,0.0189,0.0167,0.0195,0.0188,0.0173,-0.0019,-0.0108,-0.027,-0.0351,-0.033,-0.0348,-0.0331,-0.0325,-0.0317,-0.031,-0.0362,-0.0361,-0.036,-0.0359,0,-0.0147,-0.0129,-0.0082,-0.0008,0.007,0.0138,0.0218,0.0241,0.0249,0.0263,0.0259,0.0265,0.0181,0.0076,-0.0037,-0.0164,-0.0311,-0.0306,-0.0359,-0.0366,-0.0296,-0.029,-0.0285,-0.0349,-0.035,-0.0351,-0.0351,-0.0352,-0.0108,-0.0066,-0.0021,0.0055,0.0126,0.0192,0.0255,0.0314,0.036,0.0388,0.0345,0.0321,0.0149,0.0036,-0.0111,-0.0166,-0.0177,-0.027,-0.0276,-0.0282,-0.0249,-0.0178,-0.0199,-0.0199,-0.02,-0.02,-0.02,0,-0.0057,-0.0019,0.0042,0.0136,0.0192,0.0224,0.0309,0.0373,0.0454,0.0448,0.0479,0.0265,0.0156,-0.0022,-0.0062,-0.0135,-0.0154,-0.0199,-0.0255,-0.0263,-0.0271,-0.024,-0.0187,-0.0187,-0.0188,-0.0188,0,0,-0.0013,0.0032,0.0053,0.0171,0.0242,0.0342,0.0396,0.0496,0.0535,0.0514,0.048,0.0392,0.0158,0.0045,-0.0094,-0.0103,-0.0145,-0.0097,-0.0097,-0.0152,-0.0159,-0.0302,-0.026,0,0,0,0,0]}],[{"header":{"parameterUnit":"m.s-1","parameterCategory":2,"la1":30.2991,"la2":30.254,"lo1":-89.0895,"lo2":-89.0444,"dy":0.0017,"dx":0.0017,"nx":28,"ny":28,"refTime":"2024-07-12T03:00:00:Z","depth":"4","parameterNumber":2,"parameterNumberName":"U-component_of_CURRENTS"},"data":[0,0,0,0,0,0,0,0,0,0,0,0,0,0,0,0,0,0,0,0,0,0,0,0,0,0,0,0,0,0,0,0,0,0,0,0,0,0,0,0,0,0,0,0,0,0,0,0,0,0,0,0,0,0,0,0,0,0,-0.0311,-0.0311,0,-0.0344,-0.0344,-0.0344,-0.0397,-0.0398,-0.0399,-0.0401,-0.0539,-0.0541,-0.0544,0,0,0,0,0,0,0,0,0,0,0,0,0,-0.0271,-0.0271,-0.031,-0.0311,-0.0312,-0.0344,-0.0344,-0.0344,-0.0396,-0.0398,-0.04,-0.0401,-0.0538,-0.0541,-0.0544,0,0,0,0,0,0,0,0,0,0,0,0,0,-0.029,-0.0271,-0.031,-0.0346,-0.0349,-0.0344,-0.0344,-0.0344,-0.0396,-0.0398,-0.04,-0.0402,-0.0537,-0.0541,-0.0544,-0.0525,0,0,-0.0555,-0.0557,0,0,0,0,0,0,0,0,-0.0289,-0.0291,-0.034,-0.0343,-0.0348,-0.0373,-0.0381,-0.0412,-0.0396,-0.0373,-0.0401,-0.0403,-0.0495,-0.0502,-0.0495,-0.0532,-0.0537,-0.0556,-0.0558,-0.0559,-0.056,0,0,0,0,0,0,0,-0.0288,-0.029,-0.0319,-0.034,-0.0345,-0.0353,-0.0358,-0.0386,-0.042,-0.0375,-0.038,-0.0391,-0.0497,-0.0491,-0.0499,-0.054,-0.0555,-0.0559,-0.0561,-0.0562,-0.0705,-0.0707,0,0,0,0,0,0,-0.0292,-0.0288,-0.0318,-0.0321,-0.0328,-0.0353,-0.0358,-0.0359,-0.0418,-0.0429,-0.0389,-0.0394,-0.0484,-0.0495,-0.0505,-0.0614,-0.0559,-0.0563,-0.0565,-0.0704,-0.0706,-0.0707,0,0,0,0,0,0,-0.0291,-0.0294,-0.0317,-0.031,-0.0314,-0.0352,-0.0352,-0.0358,-0.0395,-0.0428,-0.0441,-0.0425,-0.0486,-0.05,-0.0562,-0.0615,-0.0564,-0.0567,-0.0702,-0.0704,-0.0706,-0.0751,0,0,0,0,0,0,-0.0289,-0.0293,-0.0307,-0.031,-0.0315,-0.0332,-0.0351,-0.0358,-0.0398,-0.0405,-0.0462,-0.0475,-0.0489,-0.0556,-0.0565,-0.0619,-0.057,-0.07,-0.0703,-0.0706,-0.0747,-0.0755,-0.0761,0,0,0,0,0,-0.0287,-0.0292,-0.0307,-0.0312,-0.0329,-0.0333,-0.0336,-0.0367,-0.0398,-0.0408,-0.0456,-0.0475,-0.0583,-0.056,-0.057,-0.0627,-0.0698,-0.0702,-0.0705,-0.0744,-0.0753,-0.0761,0,0,0,0,0,0,-0.0282,-0.0298,-0.0315,-0.0325,-0.034,-0.0345,-0.0363,-0.0385,-0.0426,-0.0456,-0.0486,-0.05,-0.0577,-0.059,-0.0563,-0.0677,-0.0648,-0.0654,-0.0674,-0.0683,-0.0689,-0.0667,-0.0573,0,0,0,0,0,-0.0287,-0.0295,-0.0311,-0.0322,-0.0334,-0.0356,-0.0371,-0.0396,-0.0427,-0.0448,-0.0493,-0.0546,-0.059,-0.0628,-0.0662,-0.0718,-0.0688,-0.0765,-0.0771,-0.0777,-0.0766,-0.0767,-0.0772,-0.072,-0.0719,-0.0719,0,0,-0.029,-0.0299,-0.0307,-0.0322,-0.0339,-0.0348,-0.037,-0.0404,-0.0418,-0.0458,-0.0513,-0.057,-0.0608,-0.0673,-0.071,-0.0699,-0.0773,-0.0782,-0.0786,-0.0772,-0.0771,-0.0776,-0.078,-0.0722,-0.0722,-0.0721,0,0,-0.0292,-0.0308,-0.0321,-0.0328,-0.0364,-0.0371,-0.039,-0.0426,-0.0453,-0.0508,-0.0547,-0.0628,-0.0696,-0.0731,-0.0756,-0.0818,-0.0804,-0.0855,-0.088,-0.0882,-0.0885,-0.0888,-0.0834,-0.0832,-0.0864,-0.0865,-0.0865,0,-0.0303,-0.031,-0.0326,-0.0334,-0.0346,-0.0384,-0.04,-0.0414,-0.0471,-0.0497,-0.0539,-0.0664,-0.0715,-0.0776,-0.0817,-0.0834,-0.0814,-0.0847,-0.0888,-0.089,-0.0892,-0.0837,-0.0833,-0.0867,-0.0867,-0.0867,-0.0866,0,-0.0302,-0.0319,-0.0325,-0.0343,-0.0357,-0.0376,-0.0399,-0.0431,-0.0489,-0.052,-0.0616,-0.0691,-0.077,-0.0815,-0.0844,-0.0904,-0.0876,-0.089,-0.0861,-0.09,-0.0839,-0.0835,-0.0871,-0.087,-0.0869,-0.0868,0,0,-0.03,-0.0322,-0.0325,-0.0339,-0.0368,-0.0375,-0.0397,-0.0426,-0.0451,-0.0543,-0.0591,-0.0711,-0.0788,-0.0821,-0.0886,-0.0909,-0.0924,-0.0925,-0.0924,-0.0858,-0.0891,-0.0784,-0.0769,-0.0955,-0.0955,-0.0955,-0.0833,0,-0.0302,-0.0308,-0.0324,-0.0342,-0.0354,-0.0379,-0.0386,-0.0422,-0.0475,-0.0526,-0.0622,-0.0708,-0.0775,-0.0858,-0.089,-0.0924,-0.092,-0.0952,-0.0874,-0.087,-0.0761,-0.0763,-0.0956,-0.083,-0.0829,-0.0828,-0.0827,0,-0.03,-0.0303,-0.0321,-0.0341,-0.035,-0.037,-0.0398,-0.042,-0.0476,-0.0531,-0.0632,-0.0701,-0.079,-0.0841,-0.0877,-0.0901,-0.0901,-0.0904,-0.0899,-0.0779,-0.0756,-0.079,-0.0819,-0.082,-0.082,-0.0821,-0.0821,0,-0.0286,-0.0303,-0.0318,-0.0322,-0.0347,-0.0373,-0.0401,-0.0443,-0.0464,-0.0563,-0.0601,-0.0698,-0.0769,-0.0794,-0.0813,-0.0866,-0.0791,-0.0855,-0.073,-0.072,-0.0832,-0.0831,-0.084,-0.084,-0.084,-0.084,-0.0841,0,-0.0277,-0.0283,-0.0319,-0.0327,-0.0344,-0.0383,-0.0423,-0.0454,-0.0512,-0.0527,-0.0636,-0.0644,-0.077,-0.0744,-0.0767,-0.0702,-0.0745,-0.0711,-0.0686,-0.0851,-0.0854,-0.0827,-0.0827,-0.0836,-0.0837,-0.0838,-0.0839,0,-0.026,-0.0279,-0.0296,-0.0333,-0.0348,-0.0375,-0.0432,-0.0443,-0.0513,-0.0534,-0.0573,-0.0616,-0.0598,-0.0622,-0.0629,-0.0623,-0.0581,-0.0532,-0.0636,-0.0622,-0.0524,-0.0528,-0.0421,-0.0417,-0.0413,-0.0409,-0.0406,0,-0.0246,-0.0259,-0.0299,-0.0309,-0.0338,-0.0381,-0.0393,-0.0457,-0.0462,-0.0476,-0.0462,-0.0466,-0.0484,-0.0373,-0.0425,-0.0397,-0.041,-0.037,-0.0533,-0.0496,-0.0483,-0.0494,-0.0503,-0.04,-0.0399,-0.0398,-0.0397,0,-0.0222,-0.025,-0.0262,-0.0285,-0.0312,-0.0315,-0.0345,-0.0342,-0.0382,-0.0427,-0.0358,-0.0346,-0.0291,-0.0304,-0.0259,-0.0251,-0.0406,-0.0331,-0.0343,-0.0496,-0.0469,-0.0463,-0.0477,-0.0383,-0.0385,-0.0387,-0.0387,0,-0.021,-0.0209,-0.0238,-0.0253,-0.0258,-0.024,-0.027,-0.0254,-0.0265,-0.0289,-0.0234,-0.0227,-0.025,-0.0215,-0.0157,-0.0153,-0.0213,-0.0248,-0.0266,-0.0281,-0.03,-0.0249,-0.0053,0,0,0,0,0,-0.0197,-0.0188,-0.0196,-0.0202,-0.0194,-0.0198,-0.021,-0.0235,-0.0256,-0.0195,-0.0229,-0.0172,-0.0136,-0.0115,-0.0096,-0.0117,-0.0216,-0.0092,-0.0266,-0.0307,-0.0323,-0.0362,0,0,0,0,0,0,-0.0193,-0.0188,-0.0185,-0.014,-0.0127,-0.0112,-0.0116,-0.0136,-0.0109,-0.0138,-0.0117,-0.0144,-0.0113,-0.0143,-0.0085,-0.0085,-0.0186,-0.0095,-0.0093,-0.0298,-0.0312,-0.0325,-0.0371,0,0,0,0,0]},{"header":{"parameterUnit":"m.s-1","parameterCategory":2,"la1":30.2991,"la2":30.254,"lo1":-89.0895,"lo2":-89.0444,"dy":0.0017,"dx":0.0017,"nx":28,"ny":28,"refTime":"2024-07-12T03:00:00:Z","depth":"4","parameterNumber":3,"parameterNumberName":"V-component_of_CURRENTS"},"data":[0,0,0,0,0,0,0,0,0,0,0,0,0,0,0,0,0,0,0,0,0,0,0,0,0,0,0,0,0,0,0,0,0,0,0,0,0,0,0,0,0,0,0,0,0,0,0,0,0,0,0,0,0,0,0,0,0,0,-0.0153,-0.0154,0,-0.0183,-0.0183,-0.0183,-0.021,-0.0211,-0.0211,-0.0212,-0.0249,-0.0249,-0.025,0,0,0,0,0,0,0,0,0,0,0,0,0,-0.0132,-0.0132,-0.0153,-0.0154,-0.0154,-0.0183,-0.0183,-0.0183,-0.021,-0.0211,-0.0212,-0.0212,-0.0249,-0.0249,-0.025,0,0,0,0,0,0,0,0,0,0,0,0,0,-0.0148,-0.0132,-0.0153,-0.0172,-0.0175,-0.0183,-0.0183,-0.0183,-0.021,-0.0211,-0.0212,-0.0212,-0.0249,-0.0249,-0.025,-0.024,0,0,-0.0252,-0.0253,0,0,0,0,0,0,0,0,-0.0147,-0.0148,-0.0169,-0.0171,-0.0174,-0.0195,-0.0189,-0.0203,-0.021,-0.0195,-0.0212,-0.0213,-0.0232,-0.0234,-0.0236,-0.0242,-0.0243,-0.0253,-0.0253,-0.0253,-0.0254,0,0,0,0,0,0,0,-0.0146,-0.0147,-0.0163,-0.017,-0.0172,-0.0184,-0.0187,-0.0192,-0.0208,-0.0196,-0.0199,-0.0205,-0.0233,-0.0235,-0.0237,-0.0244,-0.0253,-0.0253,-0.0254,-0.0254,-0.0301,-0.0302,0,0,0,0,0,0,-0.0144,-0.0146,-0.0162,-0.0164,-0.0164,-0.0184,-0.0187,-0.0186,-0.0208,-0.0212,-0.0204,-0.0206,-0.0233,-0.0236,-0.0238,-0.0273,-0.0253,-0.0254,-0.0255,-0.03,-0.0301,-0.0302,0,0,0,0,0,0,-0.0143,-0.0145,-0.0161,-0.0158,-0.0161,-0.0184,-0.0182,-0.0186,-0.0212,-0.0214,-0.0218,-0.0229,-0.0234,-0.0237,-0.0266,-0.0273,-0.0254,-0.0255,-0.0299,-0.03,-0.0301,-0.0313,0,0,0,0,0,0,-0.0142,-0.0144,-0.0152,-0.0157,-0.0161,-0.018,-0.0182,-0.0186,-0.0214,-0.0217,-0.0236,-0.0239,-0.0235,-0.0265,-0.0267,-0.0274,-0.0256,-0.0298,-0.03,-0.0301,-0.0312,-0.0315,-0.0317,0,0,0,0,0,-0.0141,-0.0148,-0.0152,-0.0155,-0.0168,-0.0181,-0.0184,-0.0201,-0.0215,-0.0227,-0.0245,-0.0239,-0.0275,-0.0267,-0.0268,-0.0275,-0.0297,-0.0299,-0.0301,-0.0311,-0.0314,-0.0317,0,0,0,0,0,0,-0.0144,-0.0152,-0.0156,-0.0166,-0.0179,-0.0186,-0.0202,-0.0215,-0.0237,-0.025,-0.0251,-0.0255,-0.0283,-0.0281,-0.0271,-0.0295,-0.0285,-0.0287,-0.0291,-0.0295,-0.0297,-0.03,-0.0256,0,0,0,0,0,-0.0147,-0.0154,-0.0164,-0.0172,-0.0181,-0.0196,-0.0208,-0.0222,-0.0239,-0.0251,-0.0267,-0.0281,-0.0286,-0.0294,-0.0304,-0.0317,-0.0305,-0.0323,-0.0326,-0.0328,-0.0333,-0.0315,-0.0315,-0.0308,-0.0308,-0.0308,0,0,-0.0151,-0.0156,-0.0161,-0.0174,-0.0185,-0.0204,-0.0205,-0.0231,-0.0254,-0.025,-0.0294,-0.0297,-0.0295,-0.031,-0.0321,-0.0312,-0.0325,-0.033,-0.0332,-0.0336,-0.0316,-0.0317,-0.0317,-0.0309,-0.0309,-0.0308,0,0,-0.0162,-0.0167,-0.018,-0.019,-0.0214,-0.0225,-0.0239,-0.0264,-0.0283,-0.0317,-0.0317,-0.0334,-0.035,-0.0347,-0.0344,-0.037,-0.0343,-0.0367,-0.0377,-0.0359,-0.0359,-0.0359,-0.0344,-0.0343,-0.0363,-0.0363,-0.0363,0,-0.0169,-0.0182,-0.0188,-0.0202,-0.022,-0.0238,-0.0265,-0.0279,-0.0315,-0.0334,-0.0338,-0.0365,-0.0368,-0.0371,-0.0374,-0.0376,-0.0355,-0.0362,-0.0361,-0.0361,-0.036,-0.0345,-0.0343,-0.0364,-0.0364,-0.0364,-0.0364,0,-0.0186,-0.0203,-0.0212,-0.0236,-0.0258,-0.0281,-0.0304,-0.0333,-0.0362,-0.0379,-0.0408,-0.0406,-0.0416,-0.0415,-0.0399,-0.0395,-0.0378,-0.0368,-0.0349,-0.0361,-0.0345,-0.0343,-0.0365,-0.0365,-0.0365,-0.0364,0,0,-0.0185,-0.0218,-0.0222,-0.0243,-0.028,-0.0299,-0.0338,-0.0376,-0.0402,-0.0429,-0.0458,-0.0459,-0.0456,-0.0452,-0.0432,-0.0413,-0.0392,-0.0383,-0.0381,-0.0361,-0.0343,-0.0351,-0.0349,-0.0367,-0.0367,-0.0367,-0.0332,0,-0.02,-0.0229,-0.025,-0.0294,-0.0317,-0.0346,-0.0378,-0.0416,-0.0444,-0.0475,-0.0475,-0.0489,-0.0467,-0.0461,-0.0441,-0.0401,-0.0386,-0.0402,-0.034,-0.0339,-0.0338,-0.0347,-0.0366,-0.033,-0.0329,-0.0329,-0.0329,0,-0.0215,-0.0233,-0.0276,-0.0325,-0.0339,-0.0376,-0.0432,-0.0463,-0.05,-0.0516,-0.0528,-0.052,-0.05,-0.0481,-0.0421,-0.0423,-0.0388,-0.036,-0.0358,-0.0361,-0.0344,-0.0316,-0.0324,-0.0325,-0.0325,-0.0325,-0.0326,0,-0.0214,-0.0256,-0.0293,-0.0307,-0.0362,-0.0401,-0.0441,-0.0488,-0.0512,-0.0542,-0.0547,-0.0534,-0.0514,-0.0471,-0.0407,-0.0404,-0.0342,-0.0334,-0.0317,-0.0317,-0.0313,-0.0313,-0.0307,-0.0307,-0.0307,-0.0307,-0.0308,0,-0.0224,-0.0251,-0.0298,-0.0318,-0.037,-0.0414,-0.0476,-0.0504,-0.0542,-0.0557,-0.0564,-0.0543,-0.0504,-0.0461,-0.0414,-0.0354,-0.0345,-0.0324,-0.031,-0.032,-0.0321,-0.0311,-0.0312,-0.0306,-0.0306,-0.0307,-0.0307,0,-0.0223,-0.0248,-0.0291,-0.0351,-0.0376,-0.042,-0.0495,-0.0523,-0.0554,-0.0568,-0.0569,-0.0542,-0.0481,-0.0448,-0.0376,-0.0357,-0.0308,-0.0293,-0.031,-0.0296,-0.0295,-0.0297,-0.0275,-0.0275,-0.0275,-0.0275,-0.0275,0,-0.0225,-0.0246,-0.031,-0.0339,-0.0377,-0.0442,-0.048,-0.053,-0.0543,-0.0547,-0.0533,-0.0499,-0.0473,-0.0382,-0.0352,-0.0299,-0.0292,-0.028,-0.0292,-0.0304,-0.0292,-0.0294,-0.0296,-0.0275,-0.0275,-0.0275,-0.0275,0,-0.0226,-0.0252,-0.0283,-0.0334,-0.0385,-0.0434,-0.0485,-0.0489,-0.0521,-0.0539,-0.0489,-0.0464,-0.0412,-0.0361,-0.0335,-0.029,-0.0295,-0.028,-0.028,-0.0291,-0.0304,-0.0293,-0.0294,-0.0275,-0.0275,-0.0275,-0.0275,0,-0.023,-0.0245,-0.0281,-0.0326,-0.0376,-0.041,-0.0448,-0.0456,-0.0472,-0.047,-0.0441,-0.041,-0.0393,-0.0355,-0.0313,-0.0294,-0.029,-0.0286,-0.0286,-0.0285,-0.0307,-0.0325,-0.0294,0,0,0,0,0,-0.0233,-0.0238,-0.027,-0.0317,-0.036,-0.039,-0.0432,-0.0459,-0.0473,-0.0433,-0.0444,-0.0393,-0.0355,-0.033,-0.0309,-0.0319,-0.0292,-0.0296,-0.0289,-0.0276,-0.0276,-0.0302,0,0,0,0,0,0,-0.0238,-0.0254,-0.0256,-0.0285,-0.0317,-0.0363,-0.0391,-0.0409,-0.0386,-0.0397,-0.0365,-0.0384,-0.0336,-0.0354,-0.0301,-0.0299,-0.0292,-0.0286,-0.0285,-0.0276,-0.0276,-0.0276,-0.0302,0,0,0,0,0]}]]